Regional Weather Roundup
Issued by NWS

Home | Current Version | Previous Version | Text Only | Print | Product List | Glossary Off
Versions: 1 2 3 4 5 6 7 8 9 10 11 12 13 14 15 16 17 18 19 20 21 22 23 24 25 26 27 28 29 30 31 32 33 34 35 36 37 38 39 40 41 42 43 44 45 46 47 48 49 50

000
ASUS43 KLOT 190021
RWRIL

ILLINOIS REGIONAL WEATHER ROUNDUP
NATIONAL WEATHER SERVICE CHICAGO/ROMEOVILLE IL
700 PM CDT SAT APR 18 2015

NOTE: "FAIR" INDICATES FEW OR NO CLOUDS BELOW 12,000 FEET WITH NO
SIGNIFICANT WEATHER AND/OR OBSTRUCTIONS TO VISIBILITY.

* THESE STATIONS ARE NOT UNDER NWS QUALITY CONTROL. THEY ALSO MAY NOT
  REPORT WEATHER SUCH AS PRECIPITATION OR FOG.

ILZ001-002-007-009-015-016-024-190100-
NORTHWEST ILLINOIS

CITY           SKY/WX    TMP DP  RH WIND       PRES   REMARKS
MOLINE         MOCLDY    73  51  46 E16       29.88F
6HR MIN TEMP:  71; 6HR MAX TEMP:  81; 6HR PCP:  0.01;

STERLING*      PTCLDY    70  43  37 E22       29.93S
SAVANNA*       MOCLDY    72  38  29 E13G18    29.92F
$$

ILZ003-004-008-010-011-017-018-190100-
NORTH CENTRAL ILLINOIS

CITY           SKY/WX    TMP DP  RH WIND       PRES   REMARKS
ROCKFORD       MOCLDY    65  38  36 E16G22    29.98F
6HR MIN TEMP:  65; 6HR MAX TEMP:  73;

FREEPORT*      PTCLDY    65  40  39 E13       29.98F
ROCHELLE*      PTCLDY    66  41  40 E14G20    29.97R
DE KALB*       CLEAR     62  39  42 NE13      29.99S
PERU*          MOCLDY    69  44  39 E18       29.94R
$$

ILZ005-006-012>014-019>023-190100-
NORTHEAST ILLINOIS

CITY           SKY/WX    TMP DP  RH WIND       PRES   REMARKS
CHICAGO-OHARE  MOCLDY    52  33  48 NE12      30.01F
6HR MIN TEMP:  52; 6HR MAX TEMP:  58;

CHICAGO-MIDWAY MOCLDY    53  34  48 NE13      30.01F
6HR MIN TEMP:  53; 6HR MAX TEMP:  63;

AURORA         PTCLDY    61  36  39 NE14      29.98F
6HR MIN TEMP:  61; 6HR MAX TEMP:  72;

LANSING*       MOCLDY    46  35  67 N8        30.02S
JOLIET*        PTCLDY    60  39  45 NE12      29.98S
WAUKEGAN       PTCLDY    49  31  49 N15G21    30.02F
6HR MIN TEMP:  49; 6HR MAX TEMP:  57;

DUPAGE AIRPORT PTCLDY    57  35  43 NE12      29.99F
6HR MIN TEMP:  57; 6HR MAX TEMP:  66;

KANKAKEE*      MOCLDY    56  40  55 NE13G18   29.97S
WHEELING       MOCLDY    50  32  50 NE10      30.03F
6HR MIN TEMP:  50; 6HR MAX TEMP:  57;

MORRIS*        PTCLDY    62  40  44 E9        29.96R
ROMEOVILLE*    PTCLDY    57  35  43 E18       29.99S
NORTHERLY ISL    N/A     44  36  73 N15         N/A
$$

LMZ740>746-190100-
SOUTHERN LAKE MICHIGAN

STATION/POSITION SKY/WX   TEMP    WIND        PRES    VSBY  WAVE
                          AIR SEA DIR/SP/G                  HT/PER
                          (F)     (DEG/KT/KT) (MB)    (MI)  (FT/S)
HARRISON CRIB              41     350/ 15/ 18   N/A
BURNHAM HARBOR             44     360/ 13/ 16   N/A
CALUMET HARBOR             44     350/ 12/ 17   N/A
BURNS HARBOR               42     330/  5/  6 1017.6F
MICHIGAN CITY              43     290/  5/  6   N/A
MICHIGAN CITY 6N           41 46  290/  6/  8   N/A           4/ 5
$$

ILZ025>027-034>036-040-047-049-050-058-095>099-190100-
WEST-CENTRAL ILLINOIS

CITY           SKY/WX    TMP DP  RH WIND       PRES   REMARKS
QUINCY         PTCLDY    74  53  48 S7        29.87S
GALESBURG*     CLOUDY    76  47  36 SE5       29.89R
MACOMB*        PTCLDY    77  48  35 S16       29.90S
JACKSONVILLE*  PTCLDY    75  56  52 SE6       29.89S
PITTSFIELD*    PTCLDY    75  56  51 SE9       29.89S
$$

ILZ028>032-037-038-041>044-048-051>054-059>061-190100-
CENTRAL ILLINOIS

CITY           SKY/WX    TMP DP  RH WIND       PRES   REMARKS
PONTIAC        MOCLDY    69  48  48 NE15G21   29.95R
BLOOMINGTON    PTCLDY    74  49  41 SE10      29.93S
DECATUR        CLEAR     73  46  38 SE12      29.92S
PEORIA         PTCLDY    77  45  32 S9        29.90R
6HR MIN TEMP:  77; 6HR MAX TEMP:  82;

LACON*         CLOUDY    75  47  37 E14       29.91R
LINCOLN*       CLEAR     76  45  33 SE8       29.90R
SPRINGFIELD    CLEAR     75  52  44 SE10      29.91R
6HR MIN TEMP:  75; 6HR MAX TEMP:  82;

TAYLORVILLE    PTCLDY    70  52  52 E6        29.91F
$$

ILZ033-039-045-046-055>057-062-063-190100-
EAST-CENTRAL ILLINOIS

CITY           SKY/WX    TMP DP  RH WIND       PRES   REMARKS
CHAMPAIGN      PTCLDY    73  46  38 SE9       29.93S
DANVILLE*      PTCLDY    71  51  47 SE6       29.92S
RANTOUL*       PTCLDY    76  47  36 SE10      29.94S
MATTOON        PTCLDY    71  47  42 SE8       29.92S
PARIS*         PTCLDY    73  48  40 E8        29.94R
$$

ILZ079-100>102-190100-
SOUTHWEST ILLINOIS

CITY           SKY/WX    TMP DP  RH WIND       PRES   REMARKS
BELLEVILLE     CLOUDY    74  57  56 SE5       29.86S
CAHOKIA*       CLOUDY    74  58  57 SE7       29.86S
SPARTA*        CLOUDY    73  58  58 E6        29.88S
$$

ILZ064>066-069>071-074>076-080>082-084>086-088>090-092>094-190100-
SOUTH-CENTRAL ILLINOIS

CITY           SKY/WX    TMP DP  RH WIND       PRES   REMARKS
CARBONDALE     MOCLDY    76  58  53 E5        29.86F
6HR MIN TEMP:  75; 6HR MAX TEMP:  79;

CAIRO*         MOCLDY    75  61  62 E3        29.85F
EFFINGHAM*     MOCLDY    74  47  37 E6        29.92F
MARION         MOCLDY    77  57  50 E5        29.88S
MT. VERNON     CLOUDY    70  55  60 NE6       29.89F
CENTRALIA*     CLOUDY    73  55  51 E5        29.90R
SALEM*         CLOUDY    76  54  46 E3        29.90S
METROPOLIS*    PTCLDY    76  56  50 CALM      29.86S
$$

ILZ067-068-072-073-078-083-087-091-190100-
SOUTHEAST ILLINOIS

CITY           SKY/WX    TMP DP  RH WIND       PRES   REMARKS
LAWRENCEVILLE  MOCLDY    72  52  49 E7        29.91S
FLORA*         MOCLDY    73  55  53 E3        29.90F
FAIRFIELD*     CLOUDY    73  56  56 NE3       29.88F
HARRISBURG*    MOCLDY    74  57  54 NE6       29.89S
ROBINSON*      MOCLDY    73  46  39 NE3       29.92S
CARMI*         CLOUDY    74  54  49 E3        29.88F
$$

ABBREVIATIONS USED IN REMARKS
   TC - TEMPERATURE IN CELSIUS
  WCI - WIND CHILL INDEX
   HX - HEAT INDEX
  VSB - VISIBILITY
$$




USA.gov is the U.S. government's official web portal to all federal, state and local government web resources and services.